SKY0014 LTBS-LTFG

Flight info

Callsign SKY0014
Flight time N/A
Altitude 5500
Route 3635N02850E 3623N02906E DCT KZO DCT 3613N02959E 3613N03025E
Aircraft DC3/M-SDF/S

Departure

Time N/A
Airport Dalaman International Airport (LTBS)

Arrival

Time 2026-05-06 18:54
Airport Gazipaşa-Alanya Airport (LTFG)
Time Latitude Longitude Altitude Speed Heading
2026-05-06 18:54 36.29792 32.30387 110 ft 0 kts 170°
2026-05-06 19:07 36.29800 32.30385 110 ft 1 kts 168°
2026-05-06 19:07 36.29814 32.30381 109 ft 1 kts 165°
2026-05-06 19:08 36.29826 32.30376 109 ft 1 kts 155°
2026-05-06 19:08 36.29837 32.30366 109 ft 1 kts 130°
2026-05-06 19:08 36.29844 32.30352 109 ft 1 kts 110°
2026-05-06 19:08 36.29845 32.30336 108 ft 1 kts 83°
2026-05-06 19:09 36.29845 32.30329 108 ft 0 kts 81°
2026-05-06 19:09 36.29845 32.30333 108 ft 2 kts 81°
2026-05-06 19:10 36.29852 32.30380 109 ft 7 kts 79°
2026-05-06 19:10 36.29874 32.30420 111 ft 4 kts
2026-05-06 19:10 36.29887 32.30418 111 ft 0 kts 346°
2026-05-06 19:12 36.29915 32.30362 109 ft 16 kts 282°
2026-05-06 19:12 36.29973 32.30347 109 ft 12 kts 82°
2026-05-06 19:13 36.29984 32.30454 113 ft 13 kts 83°
2026-05-06 19:13 36.29993 32.30568 116 ft 13 kts 86°
2026-05-06 19:13 36.30003 32.30689 120 ft 14 kts 83°
2026-05-06 19:13 36.30015 32.30817 124 ft 15 kts 83°
2026-05-06 19:14 36.30035 32.30947 128 ft 15 kts 74°
2026-05-06 19:14 36.30038 32.31031 130 ft 11 kts 213°
2026-05-06 19:14 36.30033 32.30954 128 ft 0 kts 259°
2026-05-06 19:14 36.30032 32.30951 128 ft 3 kts 259°
2026-05-06 19:15 36.29999 32.30671 120 ft 64 kts 259°
2026-05-06 19:15 36.29922 32.29930 101 ft 104 kts 256°
2026-05-06 19:15 36.29681 32.29119 357 ft 98 kts 241°
2026-05-06 19:15 36.29582 32.28192 460 ft 117 kts 267°
2026-05-06 19:16 36.29503 32.27116 585 ft 132 kts 256°
2026-05-06 19:16 36.28933 32.26202 705 ft 143 kts 211°
2026-05-06 19:16 36.27938 32.25993 818 ft 150 kts 168°
2026-05-06 19:16 36.27069 32.26683 922 ft 155 kts 126°
2026-05-06 19:17 36.26512 32.27836 1100 ft 153 kts 122°
2026-05-06 19:17 36.25911 32.28901 1292 ft 151 kts 126°
2026-05-06 19:17 36.25267 32.29921 1518 ft 147 kts 128°
2026-05-06 19:17 36.24625 32.30886 1752 ft 145 kts 129°
2026-05-06 19:18 36.23986 32.31823 1993 ft 142 kts 130°
2026-05-06 19:18 36.23341 32.32742 2230 ft 137 kts 130°
2026-05-06 19:18 36.22743 32.33600 2439 ft 128 kts 129°
2026-05-06 19:18 36.22175 32.34414 2660 ft 121 kts 129°
2026-05-06 19:19 36.21643 32.35178 2884 ft 113 kts 129°
2026-05-06 19:19 36.21148 32.35889 3103 ft 106 kts 129°
2026-05-06 19:19 36.20679 32.36562 3322 ft 98 kts 132°
2026-05-06 19:19 36.20250 32.37181 3503 ft 94 kts 128°
2026-05-06 19:20 36.19823 32.37789 3644 ft 94 kts 123°
2026-05-06 19:20 36.19393 32.38403 3769 ft 96 kts 135°
2026-05-06 19:20 36.18947 32.39043 3895 ft 101 kts 131°
2026-05-06 19:20 36.18474 32.39724 4022 ft 107 kts 127°
2026-05-06 19:21 36.17966 32.40451 4146 ft 115 kts 127°
2026-05-06 19:21 36.17432 32.41217 4271 ft 121 kts 128°
2026-05-06 19:21 36.16867 32.42032 4386 ft 127 kts 128°
2026-05-06 19:21 36.16282 32.42872 4498 ft 132 kts 128°
2026-05-06 19:22 36.15664 32.43753 4605 ft 136 kts 128°
2026-05-06 19:22 36.15041 32.44643 4716 ft 139 kts 129°
2026-05-06 19:22 36.14396 32.45564 4837 ft 142 kts 128°
2026-05-06 19:22 36.13750 32.46491 4943 ft 143 kts 129°
2026-05-06 19:23 36.13088 32.47437 5064 ft 145 kts 129°
2026-05-06 19:23 36.12432 32.48374 5175 ft 146 kts 128°
2026-05-06 19:23 36.11764 32.49333 5290 ft 146 kts 129°
2026-05-06 19:23 36.11102 32.50279 5401 ft 146 kts 128°
2026-05-06 19:24 36.10434 32.51235 5479 ft 150 kts 129°
2026-05-06 19:24 36.09935 32.52369 5482 ft 152 kts 95°
2026-05-06 19:24 36.09819 32.53674 5492 ft 156 kts 93°
2026-05-06 19:24 36.09717 32.55042 5486 ft 160 kts 92°
2026-05-06 19:25 36.09621 32.56413 5484 ft 162 kts 92°
2026-05-06 19:25 36.09527 32.57819 5480 ft 164 kts 92°
2026-05-06 19:25 36.09435 32.59224 5481 ft 165 kts 92°
2026-05-06 19:25 36.09342 32.60650 5481 ft 166 kts 92°
2026-05-06 19:26 36.09246 32.62062 5480 ft 167 kts 92°
2026-05-06 19:26 36.09146 32.63501 5480 ft 167 kts 92°
2026-05-06 19:26 36.09051 32.64922 5478 ft 167 kts 92°
2026-05-06 19:26 36.08955 32.66367 5481 ft 167 kts 94°
2026-05-06 19:27 36.08860 32.67790 5485 ft 167 kts 93°
2026-05-06 19:27 36.08764 32.69225 5492 ft 168 kts 93°
2026-05-06 19:27 36.08669 32.70676 5481 ft 169 kts 94°
2026-05-06 19:27 36.08573 32.72109 5478 ft 169 kts 93°
2026-05-06 19:28 36.08475 32.73554 5478 ft 168 kts 94°
2026-05-06 19:28 36.08375 32.75001 5480 ft 168 kts 92°
2026-05-06 19:28 36.08277 32.76416 5478 ft 167 kts 93°
2026-05-06 19:28 36.08181 32.77850 5492 ft 167 kts 92°
2026-05-06 19:29 36.08085 32.79296 5484 ft 168 kts 93°
2026-05-06 19:29 36.07989 32.80734 5481 ft 169 kts 93°
2026-05-06 19:29 36.07891 32.82188 5476 ft 169 kts 93°
2026-05-06 19:29 36.07792 32.83635 5473 ft 169 kts 93°
2026-05-06 19:30 36.07694 32.85088 5474 ft 169 kts 93°
2026-05-06 19:30 36.07646 32.86518 5475 ft 167 kts 86°
2026-05-06 19:30 36.07671 32.87953 5482 ft 168 kts 87°
2026-05-06 19:30 36.07699 32.89393 5470 ft 168 kts 88°
2026-05-06 19:31 36.07726 32.90826 5476 ft 167 kts 87°
2026-05-06 19:31 36.07752 32.92263 5477 ft 167 kts 87°
2026-05-06 19:31 36.07809 32.95145 5483 ft 168 kts 87°
2026-05-06 19:32 36.07836 32.96587 5478 ft 168 kts 88°
2026-05-06 19:32 36.07859 32.98022 5477 ft 168 kts 87°
2026-05-06 19:32 36.07884 32.99479 5476 ft 168 kts 87°
2026-05-06 19:32 36.07910 33.00912 5473 ft 168 kts 86°
2026-05-06 19:33 36.07936 33.02352 5469 ft 168 kts 87°
2026-05-06 19:33 36.07964 33.03810 5465 ft 167 kts 87°
2026-05-06 19:33 36.07990 33.05236 5483 ft 167 kts 87°
2026-05-06 19:33 36.08018 33.06682 5478 ft 168 kts 87°
2026-05-06 19:34 36.08044 33.08120 5477 ft 168 kts 88°
2026-05-06 19:34 36.08065 33.09575 5476 ft 168 kts 87°
2026-05-06 19:34 36.08089 33.11012 5474 ft 168 kts 88°
2026-05-06 19:34 36.08113 33.12465 5472 ft 168 kts 87°
2026-05-06 19:35 36.08138 33.13900 5469 ft 168 kts 87°
2026-05-06 19:35 36.08162 33.15346 5475 ft 167 kts 86°
2026-05-06 19:35 36.08187 33.16771 5480 ft 167 kts 86°
2026-05-06 19:35 36.08213 33.18216 5485 ft 168 kts 86°
2026-05-06 19:36 36.08239 33.19650 5484 ft 168 kts 87°
2026-05-06 19:36 36.08261 33.21105 5485 ft 169 kts 86°
2026-05-06 19:36 36.08282 33.22571 5479 ft 170 kts 87°
2026-05-06 19:36 36.08307 33.24019 5474 ft 170 kts 86°
2026-05-06 19:37 36.08350 33.26731 5477 ft 168 kts 87°
2026-05-06 19:37 36.08374 33.28164 5482 ft 168 kts 87°
2026-05-06 19:37 36.08398 33.29608 5486 ft 168 kts 86°
2026-05-06 19:38 36.08422 33.31065 5486 ft 169 kts 87°
2026-05-06 19:38 36.08441 33.32504 5485 ft 169 kts 86°
2026-05-06 19:38 36.08463 33.33969 5486 ft 170 kts 87°
2026-05-06 19:38 36.08485 33.35420 5480 ft 170 kts 87°
2026-05-06 19:39 36.08507 33.36890 5477 ft 170 kts 86°
2026-05-06 19:39 36.08530 33.38360 5474 ft 170 kts 86°
2026-05-06 19:39 36.08553 33.39809 5473 ft 169 kts 87°
2026-05-06 19:39 36.08576 33.41273 5478 ft 169 kts 86°
2026-05-06 19:40 36.08599 33.42713 5478 ft 169 kts 87°
2026-05-06 19:40 36.08617 33.44151 5483 ft 168 kts 87°
2026-05-06 19:40 36.08636 33.45605 5492 ft 169 kts 87°
2026-05-06 19:40 36.08656 33.47048 5489 ft 169 kts 86°
2026-05-06 19:41 36.08677 33.48508 5483 ft 169 kts 87°
2026-05-06 19:41 36.08700 33.49971 5483 ft 169 kts 87°
2026-05-06 19:41 36.08720 33.51419 5481 ft 169 kts 87°
2026-05-06 19:41 36.08740 33.52868 5484 ft 169 kts 86°
2026-05-06 19:42 36.08762 33.54308 5485 ft 168 kts 86°
2026-05-06 19:42 36.08778 33.55761 5490 ft 169 kts 86°
2026-05-06 19:42 36.08797 33.57223 5482 ft 169 kts 87°
2026-05-06 19:42 36.08816 33.58662 5483 ft 170 kts 86°
2026-05-06 19:43 36.08836 33.60141 5479 ft 170 kts 86°
2026-05-06 19:43 36.08831 33.61590 5473 ft 170 kts 93°
2026-05-06 19:43 36.08744 33.63039 5477 ft 170 kts 92°
2026-05-06 19:43 36.08656 33.64501 5474 ft 170 kts 91°
2026-05-06 19:44 36.08567 33.65951 5473 ft 170 kts 92°
2026-05-06 19:44 36.08475 33.67411 5476 ft 169 kts 92°
2026-05-06 19:44 36.08384 33.68850 5478 ft 169 kts 92°
2026-05-06 19:44 36.08293 33.70310 5484 ft 170 kts 92°
2026-05-06 19:45 36.08203 33.71759 5478 ft 170 kts 92°
2026-05-06 19:45 36.08114 33.73210 5480 ft 170 kts 92°
2026-05-06 19:45 36.08025 33.74670 5480 ft 170 kts 92°
2026-05-06 19:45 36.07935 33.76141 5474 ft 170 kts 92°
2026-05-06 19:46 36.07845 33.77604 5481 ft 170 kts 92°
2026-05-06 19:46 36.07751 33.79049 5489 ft 170 kts 92°
2026-05-06 19:46 36.07657 33.80519 5484 ft 171 kts 92°
2026-05-06 19:46 36.07565 33.81974 5483 ft 171 kts 92°
2026-05-06 19:47 36.07473 33.83427 5484 ft 171 kts 92°
2026-05-06 19:47 36.07380 33.84906 5477 ft 172 kts 92°
2026-05-06 19:47 36.07288 33.86362 5468 ft 171 kts 92°
2026-05-06 19:47 36.07197 33.87838 5472 ft 171 kts 92°
2026-05-06 19:48 36.07103 33.89312 5473 ft 171 kts 92°
2026-05-06 19:48 36.07008 33.90767 5480 ft 171 kts 92°
2026-05-06 19:48 36.06913 33.92224 5485 ft 172 kts 92°
2026-05-06 19:48 36.06819 33.93703 5475 ft 172 kts 91°
2026-05-06 19:49 36.06724 33.95184 5473 ft 172 kts 91°
2026-05-06 19:49 36.06632 33.96643 5470 ft 171 kts 92°
2026-05-06 19:49 36.06538 33.98117 5472 ft 171 kts 92°
2026-05-06 19:49 36.06446 33.99565 5471 ft 170 kts 92°
2026-05-06 19:50 36.06355 34.01021 5483 ft 170 kts 92°
2026-05-06 19:50 36.06255 34.02487 5475 ft 171 kts 92°
2026-05-06 19:50 36.06159 34.03937 5483 ft 170 kts 92°
2026-05-06 19:50 36.06062 34.05407 5484 ft 171 kts 91°
2026-05-06 19:51 36.05968 34.06868 5479 ft 172 kts 92°
2026-05-06 19:51 36.05873 34.08345 5474 ft 172 kts 92°
2026-05-06 19:51 36.05780 34.09810 5472 ft 172 kts 92°
2026-05-06 19:51 36.05683 34.11297 5475 ft 172 kts 92°
2026-05-06 19:52 36.05588 34.12772 5475 ft 171 kts 92°
2026-05-06 19:52 36.05489 34.14227 5478 ft 171 kts 92°
2026-05-06 19:52 36.05390 34.15699 5476 ft 171 kts 92°
2026-05-06 19:52 36.05296 34.17152 5473 ft 171 kts 92°
2026-05-06 19:53 36.05197 34.18630 5473 ft 171 kts 92°
2026-05-06 19:53 36.05101 34.20096 5474 ft 171 kts 92°
2026-05-06 19:53 36.05005 34.21550 5476 ft 171 kts 92°
2026-05-06 19:53 36.04909 34.23022 5476 ft 171 kts 92°
2026-05-06 19:54 36.04812 34.24495 5476 ft 172 kts 92°
2026-05-06 19:54 36.04711 34.25952 5471 ft 171 kts 92°
2026-05-06 19:54 36.04610 34.27427 5478 ft 171 kts 92°
2026-05-06 19:54 36.04513 34.28883 5476 ft 172 kts 92°
2026-05-06 19:55 36.04415 34.30366 5473 ft 172 kts 92°
2026-05-06 19:55 36.04318 34.31828 5473 ft 172 kts 92°